Time,TemperatureF,DewpointF,PressureIn,WindDirection,WindDirectionDegrees,WindSpeedMPH,WindSpeedGustMPH,Humidity,HourlyPrecipIn,Conditions,Clouds,dailyrainin,SoftwareType,DateUTC
2013-02-07 00:00:00,24.4,9.3,29.56,WSW,247,0.0,4.0,52,0.00,,,0.00,Weather View 32 v70,2013-02-07 05:00:00,
2013-02-07 00:09:00,24.4,9.3,29.56,WSW,247,0.0,4.0,52,0.00,,,0.00,Weather View 32 v70,2013-02-07 05:09:00,
2013-02-07 00:20:00,24.4,8.9,29.56,WSW,247,0.0,3.0,51,0.00,,,0.00,Weather View 32 v70,2013-02-07 05:20:00,
2013-02-07 00:40:00,24.4,9.3,29.56,WSW,247,0.0,3.0,52,0.00,,,0.00,Weather View 32 v70,2013-02-07 05:40:00,
2013-02-07 01:00:00,24.3,9.2,29.56,WSW,247,0.0,3.0,52,0.00,,,0.00,Weather View 32 v70,2013-02-07 06:00:00,
2013-02-07 01:20:00,24.1,8.6,29.59,WSW,247,0.0,4.0,51,0.00,,,0.00,Weather View 32 v70,2013-02-07 06:20:00,
2013-02-07 01:40:00,24.3,9.2,29.59,WSW,247,0.0,4.0,52,0.00,,,0.00,Weather View 32 v70,2013-02-07 06:40:00,
2013-02-07 02:00:00,24.4,8.9,29.59,WSW,247,0.0,4.0,51,0.00,,,0.00,Weather View 32 v70,2013-02-07 07:00:00,
2013-02-07 02:20:00,24.6,9.9,29.56,WSW,247,3.0,3.0,53,0.00,,,0.00,Weather View 32 v70,2013-02-07 07:20:00,
2013-02-07 02:40:00,24.6,9.9,29.56,WSW,247,0.0,3.0,53,0.00,,,0.00,Weather View 32 v70,2013-02-07 07:40:00,
2013-02-07 03:00:00,24.8,10.1,29.59,WSW,247,0.0,3.0,53,0.00,,,0.00,Weather View 32 v70,2013-02-07 08:00:00,
2013-02-07 03:20:00,24.6,9.9,29.56,WSW,247,3.0,3.0,53,0.00,,,0.00,Weather View 32 v70,2013-02-07 08:20:00,
2013-02-07 03:40:00,24.4,9.8,29.59,WSW,247,0.0,4.0,53,0.00,,,0.00,Weather View 32 v70,2013-02-07 08:40:00,
2013-02-07 04:00:00,24.4,10.6,29.56,WSW,247,0.0,4.0,55,0.00,,,0.00,Weather View 32 v70,2013-02-07 09:00:00,
2013-02-07 04:20:00,24.6,11.2,29.53,WSW,247,0.0,4.0,56,0.00,,,0.00,Weather View 32 v70,2013-02-07 09:20:00,
2013-02-07 04:40:00,24.8,11.7,29.53,WSW,247,0.0,4.0,57,0.00,,,0.00,Weather View 32 v70,2013-02-07 09:40:00,
2013-02-07 05:00:00,24.8,12.1,29.53,WSW,247,0.0,4.0,58,0.00,,,0.00,Weather View 32 v70,2013-02-07 10:00:00,
2013-02-07 05:20:00,25.0,12.7,29.53,WSW,247,0.0,4.0,59,0.00,,,0.00,Weather View 32 v70,2013-02-07 10:20:00,
2013-02-07 05:40:00,25.2,12.5,29.53,WSW,247,0.0,4.0,58,0.00,,,0.00,Weather View 32 v70,2013-02-07 10:40:00,
2013-02-07 06:00:00,25.2,12.5,29.53,WSW,247,3.0,4.0,58,0.00,,,0.00,Weather View 32 v70,2013-02-07 11:00:00,
2013-02-07 06:20:00,25.3,11.8,29.50,WSW,247,0.0,4.0,56,0.00,,,0.00,Weather View 32 v70,2013-02-07 11:20:00,
2013-02-07 06:40:00,25.3,11.8,29.50,WSW,247,3.0,4.0,56,0.00,,,0.00,Weather View 32 v70,2013-02-07 11:40:00,
2013-02-07 07:00:00,25.3,11.4,29.47,WSW,247,3.0,5.0,55,0.00,,,0.00,Weather View 32 v70,2013-02-07 12:00:00,
2013-02-07 07:20:00,25.5,11.6,29.50,WSW,247,0.0,5.0,55,0.00,,,0.00,Weather View 32 v70,2013-02-07 12:20:00,
2013-02-07 07:40:00,25.7,11.3,29.50,WSW,247,0.0,5.0,54,0.00,,,0.00,Weather View 32 v70,2013-02-07 12:40:00,
2013-02-07 08:00:00,25.9,11.5,29.50,WSW,247,0.0,5.0,54,0.00,,,0.00,Weather View 32 v70,2013-02-07 13:00:00,
2013-02-07 08:20:00,26.1,11.3,29.50,WSW,247,0.0,4.0,53,0.00,,,0.00,Weather View 32 v70,2013-02-07 13:20:00,
2013-02-07 08:40:00,26.4,11.6,29.50,WSW,247,3.0,4.0,53,0.00,,,0.00,Weather View 32 v70,2013-02-07 13:40:00,
2013-02-07 09:00:00,27.0,12.1,29.50,WSW,247,0.0,4.0,53,0.00,,,0.00,Weather View 32 v70,2013-02-07 14:00:00,
2013-02-07 09:20:00,27.7,11.9,29.50,WSW,247,3.0,4.0,51,0.00,,,0.00,Weather View 32 v70,2013-02-07 14:20:00,
2013-02-07 09:40:00,28.8,12.0,29.50,WSW,247,2.0,5.0,49,0.00,,,0.00,Weather View 32 v70,2013-02-07 14:40:00,
2013-02-07 10:00:00,29.8,13.0,29.50,WSW,247,0.0,5.0,49,0.00,,,0.00,Weather View 32 v70,2013-02-07 15:00:00,
2013-02-07 10:20:00,31.3,14.3,29.47,WSW,247,0.0,5.0,49,0.00,,,0.00,Weather View 32 v70,2013-02-07 15:20:00,
2013-02-07 10:40:00,32.0,14.0,29.47,SSW,211,2.0,5.0,47,0.00,,,0.00,Weather View 32 v70,2013-02-07 15:40:00,
2013-02-07 11:00:00,32.7,14.7,29.47,East,91,0.0,5.0,47,0.00,,,0.00,Weather View 32 v70,2013-02-07 16:00:00,
2013-02-07 11:20:00,32.9,14.9,29.50,East,101,0.0,5.0,47,0.00,,,0.00,Weather View 32 v70,2013-02-07 16:20:00,
2013-02-07 11:40:00,34.0,15.4,29.47,SSW,196,0.0,4.0,46,0.00,,,0.00,Weather View 32 v70,2013-02-07 16:40:00,
2013-02-07 12:00:00,35.1,16.3,29.47,SW,217,0.0,4.0,46,0.00,,,0.00,Weather View 32 v70,2013-02-07 17:00:00,
2013-02-07 12:20:00,36.0,16.1,29.44,East,96,0.0,4.0,44,0.00,,,0.00,Weather View 32 v70,2013-02-07 17:20:00,
2013-02-07 12:40:00,35.4,16.7,29.44,NE,50,0.0,5.0,46,0.00,,,0.00,Weather View 32 v70,2013-02-07 17:40:00,
2013-02-07 13:00:00,35.8,17.5,29.44,ESE,102,4.0,5.0,47,0.00,,,0.00,Weather View 32 v70,2013-02-07 18:00:00,
2013-02-07 13:20:00,35.8,17.5,29.41,ESE,107,0.0,5.0,47,0.00,,,0.00,Weather View 32 v70,2013-02-07 18:20:00,
2013-02-07 13:40:00,36.0,17.7,29.41,ESE,115,2.0,5.0,47,0.00,,,0.00,Weather View 32 v70,2013-02-07 18:40:00,
2013-02-07 14:00:00,37.0,17.1,29.41,ESE,102,3.0,5.0,44,0.00,,,0.00,Weather View 32 v70,2013-02-07 19:00:00,
2013-02-07 14:21:00,36.9,17.5,29.38,SE,146,0.0,5.0,45,0.00,,,0.00,Weather View 32 v70,2013-02-07 19:21:00,
2013-02-07 14:40:00,36.9,18.0,29.38,East,98,3.0,6.0,46,0.00,,,0.00,Weather View 32 v70,2013-02-07 19:40:00,
2013-02-07 15:00:00,36.7,18.8,29.35,ESE,120,3.0,6.0,48,0.04,,,0.04,Weather View 32 v70,2013-02-07 20:00:00,
2013-02-07 15:20:00,36.1,19.3,29.35,SSE,153,5.0,6.0,50,0.04,,,0.04,Weather View 32 v70,2013-02-07 20:20:00,
2013-02-07 15:40:00,36.7,19.3,29.35,ENE,75,3.0,6.0,49,0.04,,,0.04,Weather View 32 v70,2013-02-07 20:40:00,
2013-02-07 16:00:00,36.3,19.4,29.32,ENE,73,5.0,6.0,50,0.00,,,0.04,Weather View 32 v70,2013-02-07 21:00:00,
2013-02-07 16:20:00,35.6,19.2,29.32,East,91,3.0,6.0,51,0.00,,,0.04,Weather View 32 v70,2013-02-07 21:20:00,
2013-02-07 16:40:00,34.7,18.9,29.32,ESE,107,4.0,6.0,52,0.00,,,0.04,Weather View 32 v70,2013-02-07 21:40:00,
2013-02-07 17:00:00,34.0,19.1,29.32,East,85,5.0,6.0,54,0.00,,,0.04,Weather View 32 v70,2013-02-07 22:00:00,
2013-02-07 17:20:00,33.6,19.6,29.32,East,91,4.0,6.0,56,0.00,,,0.04,Weather View 32 v70,2013-02-07 22:20:00,
2013-02-07 17:40:00,33.3,19.7,29.32,ESE,112,3.0,6.0,57,0.00,,,0.04,Weather View 32 v70,2013-02-07 22:40:00,
2013-02-07 18:00:00,33.1,19.9,29.29,ESE,104,3.0,6.0,58,0.00,,,0.04,Weather View 32 v70,2013-02-07 23:00:00,
2013-02-07 18:20:00,32.9,19.7,29.29,ESE,104,2.0,6.0,58,0.00,,,0.04,Weather View 32 v70,2013-02-07 23:20:00,
2013-02-07 18:40:00,32.7,20.0,29.29,ESE,104,4.0,6.0,59,0.00,,,0.04,Weather View 32 v70,2013-02-07 23:40:00,
2013-02-07 19:00:00,32.7,20.4,29.26,ESE,117,4.0,6.0,60,0.00,,,0.04,Weather View 32 v70,2013-02-08 00:00:00,
2013-02-07 19:20:00,32.7,20.4,29.26,ESE,105,4.0,6.0,60,0.00,,,0.04,Weather View 32 v70,2013-02-08 00:20:00,
2013-02-07 19:25:00,32.7,20.4,29.26,ESE,105,4.0,6.0,60,0.00,,,0.04,Weather View 32 v70,2013-02-08 00:25:00,
2013-02-07 19:40:00,32.4,18.8,29.29,ESE,106,3.0,6.0,57,0.00,,,0.04,Weather View 32 v70,2013-02-08 00:40:00,
2013-02-07 20:00:00,32.2,18.2,29.26,ESE,113,3.0,6.0,56,0.00,,,0.04,Weather View 32 v70,2013-02-08 01:00:00,
2013-02-07 20:20:00,32.0,18.1,29.26,East,79,3.0,6.0,56,0.00,,,0.04,Weather View 32 v70,2013-02-08 01:20:00,
2013-02-07 20:26:00,32.0,18.1,29.26,East,79,3.0,6.0,56,0.00,,,0.04,Weather View 32 v70,2013-02-08 01:26:00,
2013-02-07 20:40:00,31.6,16.5,29.26,ESE,108,4.0,8.0,53,0.00,,,0.04,Weather View 32 v70,2013-02-08 01:40:00,
2013-02-07 21:00:00,31.6,17.3,29.26,SE,138,4.0,8.0,55,0.00,,,0.04,Weather View 32 v70,2013-02-08 02:00:00,
2013-02-07 21:20:00,31.5,15.8,29.23,ESE,105,4.0,8.0,52,0.00,,,0.04,Weather View 32 v70,2013-02-08 02:20:00,
2013-02-07 21:26:00,31.5,15.8,29.23,ESE,105,4.0,8.0,52,0.00,,,0.04,Weather View 32 v70,2013-02-08 02:26:00,
2013-02-07 21:40:00,31.3,15.7,29.23,ESE,123,4.0,6.0,52,0.00,,,0.04,Weather View 32 v70,2013-02-08 02:40:00,
2013-02-07 22:00:00,31.1,16.4,29.23,East,98,5.0,6.0,54,0.00,,,0.04,Weather View 32 v70,2013-02-08 03:00:00,
2013-02-07 22:20:00,30.4,17.0,29.26,ESE,102,0.0,6.0,57,0.00,,,0.04,Weather View 32 v70,2013-02-08 03:20:00,
2013-02-07 22:27:00,30.4,17.0,29.26,ESE,102,0.0,6.0,57,0.00,,,0.04,Weather View 32 v70,2013-02-08 03:27:00,
2013-02-07 22:40:00,30.2,18.7,29.26,ESE,105,3.0,6.0,62,0.00,,,0.04,Weather View 32 v70,2013-02-08 03:40:00,
2013-02-07 23:00:00,29.5,20.6,29.23,ENE,72,3.0,5.0,69,0.00,,,0.04,Weather View 32 v70,2013-02-08 04:00:00,
2013-02-07 23:20:00,29.1,22.2,29.23,ENE,72,0.0,5.0,75,0.00,,,0.04,Weather View 32 v70,2013-02-08 04:20:00,
2013-02-07 23:28:00,29.1,22.2,29.23,ENE,72,0.0,5.0,75,0.00,,,0.04,Weather View 32 v70,2013-02-08 04:28:00,
2013-02-07 23:40:00,28.8,22.8,29.21,East,80,3.0,5.0,78,0.00,,,0.04,Weather View 32 v70,2013-02-08 04:40:00,